This demonstration page uses our WeatherBlox Daily Observations layout. Learn more.

40.92945, -100.16068

Hourly Observations for June 24, 2018

Temp ( °F °C ) Dew Point ( °F °C ) Humidity (%) Winds ( mph kmh ) Pressure ( in mb ) Visibility ( mi km ) Precip ( " mm )
12:15 am 00:15 Clear with Nearby Thunderstorms 66 19 62 16.5 86 86 NNW 7 11 29.74 1007 10 16.0934 0 0
12:35 am 00:35 Clear with Nearby Thunderstorms 69 20.5 58 14.6 69 69 NW 23 37 29.8 1009 10 16.0934 0 0
12:55 am 00:55 Clear 68 20 57 13.8 68 68 NW 18 30 29.83 1010 10 16.0934 0 0
1:15 am 01:15 Mostly Cloudy 67 19.7 57 13.9 69 69 WNW 18 30 29.83 1010 10 16.0934 0 0
1:35 am 01:35 Mostly Cloudy with Nearby Thunderstorms 67 19.5 57 14 71 71 NW 14 22 29.83 1010 10 16.0934 0 0
1:55 am 01:55 Mostly Cloudy 67 19.2 57 13.8 71 71 NNW 14 22 29.8 1009 10 16.0934 0 0
2:15 am 02:15 Partly Cloudy 66 19 57 13.8 72 72 NNE 13 20 29.77 1008 10 16.0934 0 0
2:35 am 02:35 Clear 67 19.2 57 13.8 71 71 NNE 12 19 29.74 1007 10 16.0934 0 0
2:55 am 02:55 Clear 65 18.6 58 14.2 76 76 NNE 10 17 29.74 1007 10 16.0934 0 0
3:15 am 03:15 Clear 65 18.5 57 13.8 74 74 NNE 8 13 29.71 1006 10 16.0934 0 0
3:35 am 03:35 Clear 65 18.6 56 13.5 72 72 NNE 5 7 29.68 1005 10 16.0934 0 0
3:55 am 03:55 Clear 65 18.2 56 13.5 74 74 ESE 7 11 29.65 1004 10 16.0934 0 0
4:15 am 04:15 Clear 65 18.3 56 13.5 74 74 SSE 5 7 29.65 1004 10 16.0934 0 0
4:35 am 04:35 Clear 62 16.7 57 13.8 83 83 NW 9 15 29.74 1007 10 16.0934 0 0
4:55 am 04:55 Clear 62 16.7 57 14 84 84 W 7 11 29.77 1008 10 16.0934 0 0
5:15 am 05:15 Clear 63 17.1 57 14.1 83 83 W 6 9 29.8 1009 10 16.0934 0 0
5:35 am 05:35 Clear 63 17.4 58 14.2 82 82 W 14 22 29.83 1010 10 16.0934 0 0
5:55 am 05:55 Clear 65 18.5 58 14.2 76 76 WSW 18 30 29.88 1012 10 16.0934 0 0
6:15 am 06:15 Partly Cloudy 66 19 58 14.2 74 74 W 17 28 29.88 1012 10 16.0934 0 0
6:35 am 06:35 Mostly Cloudy with Light Rain 66 18.9 58 14.5 76 76 W 16 26 29.88 1012 10 16.0934 0 0
6:55 am 06:55 Mostly Cloudy with Light Rain 65 18.4 58 14.6 79 79 W 12 19 29.85 1011 10 16.0934 0 0
7:15 am 07:15 Partly Cloudy 65 18.3 59 14.8 80 80 WSW 7 11 29.85 1011 10 16.0934 0 0
7:35 am 07:35 Sunny 64 18 59 15 83 83 S 3 6 29.8 1009 10 16.0934 0 0
7:55 am 07:55 Partly Cloudy 65 18.2 59 15.1 82 82 ESE 12 19 29.71 1006 10 16.0934 0 0
8:15 am 08:15 Partly Cloudy 66 18.9 59 14.9 78 78 WNW 17 28 29.74 1007 10 16.0934 0 0
8:35 am 08:35 Sunny 67 19.2 58 14.6 75 75 WSW 3 6 29.74 1007 10 16.0934 0 0
8:55 am 08:55 Sunny 67 19.4 59 15.2 77 77 NW 13 20 29.83 1010 10 16.0934 0 0
9:15 am 09:15 Sunny 67 19.5 60 15.5 78 78 NW 8 13 29.83 1010 10 16.0934 0 0
9:35 am 09:35 Sunny 67 19.6 60 15.3 76 76 NNW 6 9 29.8 1009 10 16.0934 0 0
9:55 am 09:55 Partly Cloudy 67 19.5 60 15.4 77 77 N 7 11 29.8 1009 10 16.0934 0 0
10:15 am 10:15 Sunny 67 19.3 60 15.6 79 79 NNE 7 11 29.8 1009 10 16.0934 0 0
10:35 am 10:35 Sunny 69 20.3 61 16 76 76 Calm 29.83 1010 10 16.0934 0 0
10:55 am 10:55 Sunny 71 21.8 60 15.6 68 68 Calm 29.83 1010 10 16.0934 0 0
11:15 am 11:15 Sunny 73 22.7 60 15.3 63 63 Calm 29.8 1009 10 16.0934 0 0
11:35 am 11:35 Sunny 74 23.5 60 15.7 62 62 NNW 6 9 29.8 1009 10 16.0934 0 0
11:55 am 11:55 Sunny 75 23.9 60 15.5 59 59 NNW 8 13 29.8 1009 10 16.0934 0 0
12:15 pm 12:15 Sunny 76 24.2 61 16.1 61 61 NNW 8 13 29.8 1009 10 16.0934 0 0
12:35 pm 12:35 Sunny 75 24 60 15.4 59 59 NNW 7 11 29.83 1010 10 16.0934 0 0
12:55 pm 12:55 Sunny 76 24.3 59 15.2 57 57 NW 5 7 29.83 1010 10 16.0934 0 0
1:15 pm 13:15 Sunny 76 24.3 60 15.3 57 57 NNW 6 9 29.83 1010 10 16.0934 0 0
1:35 pm 13:35 Sunny 76 24.4 59 15 56 56 WNW 5 7 29.83 1010 10 16.0934 0 0
1:55 pm 13:55 Sunny 76 24.5 60 15.4 57 57 Calm 29.83 1010 10 16.0934 0 0
2:15 pm 14:15 Sunny 76 24.5 60 15.6 58 58 NW 3 6 29.8 1009 10 16.0934 0 0
2:35 pm 14:35 Sunny 77 25.1 61 16 57 57 Calm 29.8 1009 10 16.0934 0 0
2:55 pm 14:55 Sunny 79 25.9 61 16.2 55 55 N 3 6 29.8 1009 10 16.0934 0 0
3:15 pm 15:15 Sunny 79 26 61 16 54 54 Calm 29.77 1008 10 16.0934 0 0
3:35 pm 15:35 Sunny 80 26.7 60 15.7 51 51 Calm 29.77 1008 10 16.0934 0 0
3:55 pm 15:55 Sunny 80 26.7 59 14.8 48 48 Calm 29.77 1008 10 16.0934 0 0
4:15 pm 16:15 Sunny 82 27.5 58 14.3 44 44 W 3 6 29.74 1007 10 16.0934 0 0
4:35 pm 16:35 Sunny 82 28 58 14.2 43 43 W 3 6 29.77 1008 10 16.0934 0 0
4:55 pm 16:55 Sunny 81 27.1 59 14.8 47 47 SSW 3 6 29.77 1008 10 16.0934 0 0
5:15 pm 17:15 Partly Cloudy 82 27.5 59 15.2 47 47 WSW 5 7 29.77 1008 10 16.0934 0 0
5:35 pm 17:35 Mostly Cloudy 81 27.3 61 16.2 51 51 SSW 7 11 29.77 1008 10 16.0934 0 0
5:55 pm 17:55 Mostly Cloudy 81 27.4 61 15.9 49 49 W 9 15 29.77 1008 10 16.0934 0 0
6:15 pm 18:15 Mostly Cloudy 76 24.5 60 15.6 58 58 N 24 39 29.8 1009 10 16.0934 0 0
6:35 pm 18:35 Cloudy 70 21.3 61 16 72 72 NNW 21 33 29.85 1011 10 16.0934 0 0
6:55 pm 18:55 Mostly Cloudy 69 20.6 60 15.6 73 73 N 14 22 29.85 1011 10 16.0934 0 0
7:15 pm 19:15 Sunny 69 20.6 59 14.9 70 70 N 13 20 29.85 1011 10 16.0934 0 0
7:35 pm 19:35 Partly Cloudy 68 19.8 59 14.9 74 74 N 8 13 29.85 1011 10 16.0934 0 0
7:55 pm 19:55 Partly Cloudy 67 19.6 60 15.5 77 77 NW 8 13 29.85 1011 10 16.0934 0 0
8:15 pm 20:15 Mostly Cloudy 67 19.5 60 15.6 78 78 WNW 12 19 29.91 1013 10 16.0934 0 0
8:35 pm 20:35 Cloudy 68 19.8 60 15.6 77 77 WNW 9 15 29.88 1012 10 16.0934 0 0
8:55 pm 20:55 Cloudy 67 19.5 61 16 80 80 W 8 13 29.94 1014 10 16.0934 0 0
9:15 pm 21:15 Mostly Cloudy 66 19 61 16.1 83 83 WSW 8 13 29.94 1014 10 16.0934 0 0
9:35 pm 21:35 Cloudy with Light Rain 65 18.6 61 16.3 87 87 WSW 8 13 29.97 1015 10 16.0934 0 0
9:55 pm 21:55 Cloudy with Rain 65 18.2 61 16.2 88 88 W 10 17 29.97 1015 10 16.0934 0.02 0.508
10:15 pm 22:15 Cloudy with Rain 64 17.5 60 15.7 89 89 W 12 19 29.97 1015 10 16.0934 0.04 1.016
10:35 pm 22:35 Cloudy with Rain 63 17 60 15.5 91 91 W 12 19 29.97 1015 10 16.0934 0.06 1.524
10:55 pm 22:55 Mostly Cloudy with Light Rain 62 16.7 59 15.1 90 90 W 8 13 30 1016 10 16.0934 0.08 2.032
11:15 pm 23:15 Partly Cloudy with Light Drizzle 62 16.6 59 15.2 92 92 W 6 9 29.94 1014 10 16.0934 0 0
11:35 pm 23:35 Mostly Cloudy 62 16.7 59 15.2 91 91 Calm 29.91 1013 10 16.0934 0 0
11:55 pm 23:55 Mostly Cloudy 62 16.7 59 15.2 91 91 ENE 9 15 29.85 1011 10 16.0934 0 0

Powered by AerisWeather